📊 Raw Sensor Data
Showing records 41801 to 41825 of 84,989 total
| ID | Distance (ft) | Battery V | Battery A | Int Temp (°F) | Int Humid (%) | Ext Temp (°F) | Solar V | RSSI | SNR | Time Stamp |
|---|---|---|---|---|---|---|---|---|---|---|
| 43201 | 15.6 | 4.02 | 0 | 79 | 42 | 76 | 5.10 | -70 | 8 | 06/11/2025 12:45 PM |
| 43200 | 15.6 | 4.02 | 0 | 77 | 42 | 76 | 5.10 | -69 | 8 | 06/11/2025 12:30 PM |
| 43199 | 15.6 | 4.03 | 0 | 75 | 43 | 74 | 5.10 | -67 | 8 | 06/11/2025 12:15 PM |
| 43198 | 15.7 | 4.02 | 0 | 74 | 43 | 71 | 5.10 | -70 | 8 | 06/11/2025 12:00 PM |
| 43197 | 15.6 | 4.02 | 0 | 74 | 43 | 76 | 5.10 | -71 | 8 | 06/11/2025 11:45 AM |
| 43196 | 15.7 | 4.02 | 0 | 72 | 43 | 73 | 5.10 | -70 | 8 | 06/11/2025 11:30 AM |
| 43195 | 15.7 | 4.02 | 0 | 71 | 43 | 70 | 5.10 | -71 | 8 | 06/11/2025 11:15 AM |
| 43194 | 15.7 | 4.02 | 0 | 70 | 43 | 70 | 5.10 | -69 | 7 | 06/11/2025 11:00 AM |
| 43193 | 15.7 | 4.02 | 0 | 70 | 43 | 69 | 5.10 | -70 | 7 | 06/11/2025 10:45 AM |
| 43192 | 15.7 | 4.02 | 0 | 69 | 43 | 69 | 5.10 | -69 | 7 | 06/11/2025 10:30 AM |
| 43191 | 15.7 | 4.03 | 0 | 68 | 43 | 69 | 5.10 | -73 | 8 | 06/11/2025 10:15 AM |
| 43190 | 15.7 | 4.02 | 0 | 67 | 43 | 69 | 5.10 | -69 | 8 | 06/11/2025 10:00 AM |
| 43189 | 15.7 | 4.14 | 0 | 66 | 43 | 68 | 5.10 | -69 | 8 | 06/11/2025 09:45 AM |
| 43188 | 15.7 | 4.11 | 0 | 66 | 44 | 66 | 5.10 | -70 | 8 | 06/11/2025 09:30 AM |
| 43187 | 15.7 | 4.02 | 0 | 65 | 44 | 67 | 5.10 | -71 | 7 | 06/11/2025 09:15 AM |
| 43186 | 15.7 | 4.02 | 0 | 64 | 44 | 66 | 5.10 | -71 | 8 | 06/11/2025 09:00 AM |
| 43185 | 15.7 | 4.02 | 0 | 63 | 44 | 66 | 5.10 | -68 | 8 | 06/11/2025 08:45 AM |
| 43184 | 15.6 | 4.02 | 0 | 62 | 44 | 65 | 5.10 | -69 | 8 | 06/11/2025 08:30 AM |
| 43183 | 15.6 | 4.02 | 0 | 61 | 43 | 65 | 5.10 | -69 | 8 | 06/11/2025 08:15 AM |
| 43182 | 15.6 | 4.02 | 0 | 60 | 43 | 64 | 5.10 | -71 | 8 | 06/11/2025 08:00 AM |
| 43181 | 15.6 | 4.03 | 0 | 59 | 43 | 63 | 5.10 | -70 | 8 | 06/11/2025 07:45 AM |
| 43180 | 15.6 | 4.10 | 38 | 58 | 43 | 62 | 4.50 | -68 | 8 | 06/11/2025 07:30 AM |
| 43179 | 15.6 | 4.04 | 27 | 57 | 42 | 61 | 4.50 | -72 | 7 | 06/11/2025 07:15 AM |
| 43178 | 15.6 | 4.05 | -7 | 56 | 42 | 61 | 4.50 | -71 | 8 | 06/11/2025 07:00 AM |
| 43177 | 15.5 | 4.04 | 7 | 54 | 42 | 59 | 4.50 | -67 | 8 | 06/11/2025 06:45 AM |